Terminal Aerodrome Forecast
Issued by NWS

Current Version | Previous Version | Graphics & Text | Print | Product List | Glossary On
Versions: 1 2 3 4 5 6 7 8 9 10 11 12 13 14 15 16 17 18
000
FTUS41 KPBZ 151127
TAFMGW
TAF
KMGW 151127Z 1512/1612 00000KT P6SM SCT250
     FM151700 17008KT P6SM BKN150
     FM160100 19008KT 4SM -SHRA OVC035
     FM160400 21008KT 5SM -SHRA OVC010
     FM160600 21008KT P6SM VCSH OVC008
     FM160800 25008KT P6SM VCSH OVC010=

USA.gov is the U.S. government's official web portal to all federal, state and local government web resources and services.